Location: Unspecified
(0.0000°N, 0.0000°E)
Time: 16:33:55
(UTC+00:00)

N. Korean satellite - Visible Passes

Search period start: 17 January 2020 00:00
Search period end: 27 January 2020 00:00
Orbit: 454 x 508 km, 97.2° (Epoch: 17 January)

Date Brightness Start Highest point End Pass type
(mag) Time Alt. Az. Time Alt. Az. Time Alt. Az.
17 Jan 9.9 04:41:45 10° ENE 04:43:49 15° ESE 04:45:55 10° SE visible
19 Jan 6.8 05:22:29 10° NNE 05:26:04 77° E 05:29:45 10° S visible
20 Jan 8.9 04:57:33 10° NE 05:00:40 27° E 05:03:50 10° SSE visible
21 Jan 10.2 04:34:17 10° E 04:35:17 11° ESE 04:36:17 10° ESE visible
22 Jan 6.8 05:39:25 10° N 05:42:56 51° W 05:46:32 10° SSW visible
23 Jan 7.5 05:13:57 10° NNE 05:17:31 54° E 05:21:08 10° S visible
24 Jan 9.4 04:49:20 10° NE 04:52:06 20° ESE 04:54:54 10° SSE visible
26 Jan 6.5 05:30:43 10° N 05:34:21 74° W 05:38:04 10° SSW visible
